Location: Foots Cray
(51.4000°N, 0.1167°E)
Time: 02:37:14
(UTC+00:00)

Cosmos 841 Rocket - Pass Details

Date: 15 May 2026
Orbit: 741 x 767 km, 74.0° (Epoch: 8 June)

Event Time Altitude Azimuth Distance (km) Brightness Sun altitude
Exits shadow 23:27:22 33° 204° (SSW) 1,253 4.1 -19.3°
Maximum altitude 23:29:45 90° 291° (WNW) 770 3.4 -19.3°
Drops below altitude 10° 23:35:02 10° 25° (NNE) 2,314 6.9 -19.4°
Sets 23:37:25 0° 25° (NNE) 3,247 7.8 -19.4°
